Inquirer Daily News

Weather

Get conditions and forecasts for any City, State, ZIP code or Country:  
Trenton, NJ
on Thursday, November 8, 2012

Thursday
Previous Day Next Day
Daily Summary
 ActualAverageRecord
Temperature
Mean Temperature °F 48°F  
Max Temperature 48°F 58°F 76°F (1975)
Min Temperature 33°F 39°F 22°F (1993)
Degree Days
Heating Degree Days 24 17  
Month to date heating degree days 191 128  
Since 1 July heating degree days 499 525  
Cooling Degree Days 0 0  
Month to date cooling degree days 0 0  
Year to date cooling degree days 1234 965  
Moisture
Dew Point 24°F   
Average Humidity 60    
Maximum Humidity 89    
Minimum Humidity 31    
Precipitation
Precipitation T in 0.12 in 2.85 in (1972)
Month to date precipitation 0.36 0.85  
Year to date precipitation 32.41 40.28  
Wind
Wind Speed 10 mph   
Max Wind Speed 20 mph   
Max Gust Speed 30 mph   
Visibility 10 miles   
Events Snow   

Key: T is trace of precipitation, MM is missing value
Source: NWS Daily Summary
Time(EST)TemperatureDew PointHumidity Pressure Visibility Wind DirectionWind SpeedGust SpeedPrecipitationEvents Conditions
12:16 AM 33.8°F 30.2°F 87% 29.80 in 4.0 miles NNE 11.5 mph - 0.00 in Snow Light Snow
12:37 AM 33.8°F 30.2°F 87% 29.80 in 7.0 miles North 11.5 mph - 0.00 in Snow Light Snow
12:53 AM 34.0°F 28.0°F 79% 29.79 in 10.0 miles North 10.4 mph - 0.00 in   Overcast
2:53 AM 36.0°F 28.0°F 73% 29.76 in 10.0 miles North 4.6 mph - N/A   Overcast
3:53 AM 36.0°F 27.0°F 70% 29.77 in 10.0 miles North 8.1 mph - N/A   Overcast
4:53 AM 37.0°F 25.0°F 62% 29.77 in 10.0 miles North 6.9 mph - N/A   Overcast
5:53 AM 37.0°F 25.0°F 62% 29.77 in 10.0 miles North 5.8 mph - N/A   Overcast
6:53 AM 37.9°F 24.1°F 57% 29.79 in 10.0 miles North 9.2 mph - N/A   Overcast
7:53 AM 37.9°F 24.1°F 57% 29.81 in 10.0 miles North 8.1 mph - N/A   Scattered Clouds
8:53 AM 37.9°F 23.0°F 55% 29.81 in 10.0 miles North 8.1 mph - N/A   Clear
9:53 AM 39.9°F 24.1°F 53% 29.82 in 10.0 miles North 4.6 mph - N/A   Partly Cloudy
10:53 AM 42.1°F 23.0°F 47% 29.81 in 10.0 miles North 10.4 mph - N/A   Overcast
11:53 AM 43.0°F 19.9°F 40% 29.79 in 10.0 miles North 11.5 mph - N/A   Scattered Clouds
12:53 PM 44.1°F 19.0°F 37% 29.78 in 10.0 miles North 12.7 mph 24.2 mph N/A   Clear
1:53 PM 46.0°F 19.0°F 34% 29.78 in 10.0 miles North 15.0 mph 23.0 mph N/A   Clear
2:53 PM 45.0°F 18.0°F 34% 29.80 in 10.0 miles North 15.0 mph - N/A   Mostly Cloudy
3:53 PM 48.0°F 19.9°F 33% 29.80 in 10.0 miles North 8.1 mph - N/A   Mostly Cloudy
4:53 PM 46.9°F 18.0°F 32% 29.81 in 10.0 miles North 9.2 mph - N/A   Partly Cloudy
5:53 PM 46.0°F 21.0°F 37% 29.84 in 10.0 miles NNW 10.4 mph 19.6 mph N/A   Clear
6:53 PM 43.0°F 23.0°F 45% 29.87 in 10.0 miles North 16.1 mph 25.3 mph N/A   Clear
7:53 PM 42.1°F 23.0°F 47% 29.89 in 10.0 miles North 12.7 mph 20.7 mph N/A   Clear
8:53 PM 39.9°F 23.0°F 51% 29.92 in 10.0 miles North 11.5 mph 18.4 mph N/A   Clear
9:53 PM 37.9°F 24.1°F 57% 29.94 in 10.0 miles North 11.5 mph 20.7 mph N/A   Clear
10:53 PM 37.9°F 24.1°F 57% 29.95 in 10.0 miles North 15.0 mph - N/A   Clear
11:53 PM 37.0°F 24.1°F 59% 29.95 in 10.0 miles North 6.9 mph - N/A   Clear
Astronomy
Sunrise:06:37 AM (EST) Moon Rise:12:29 AM (EST)11/8
Sunset:04:48 PM (EST) Moon Set:01:28 PM (EST)11/8
Moon Phase
Nov. 08 Nov. 13 Nov. 20 Nov. 28 Dec. 06

Copyright © 2014 The Weather Underground, Inc.